VOZ476 YMML-YSSY

Flight info

Callsign VOZ476
Flight time 1h 16m
Altitude 37000
Route DOSEL2/34 DOSEL Y59 RIVET RIVET4
Aircraft B738/M-SDE2E3FGHIRWXY/LB1

Departure

Time 2026-05-04 08:06
Airport Melbourne Airport (YMML)

Arrival

Time 2026-05-04 09:23
Airport Sydney Kingsford Smith International Airport (YSSY)
Time Latitude Longitude Altitude Speed Heading
2026-05-04 07:08 -37.67122 144.84634 388 ft 0 kts 352°
2026-05-04 07:12 -37.67133 144.84586 387 ft 0 kts 352°
2026-05-04 07:39 -37.67130 144.84636 388 ft 0 kts 352°
2026-05-04 07:39 -37.67122 144.84634 388 ft 0 kts 352°
2026-05-04 07:40 -37.67133 144.84586 387 ft 0 kts 352°
2026-05-04 07:51 -37.67144 144.84588 386 ft 4 kts 352°
2026-05-04 07:51 -37.67171 144.84592 386 ft 4 kts 349°
2026-05-04 07:52 -37.67195 144.84602 386 ft 4 kts 313°
2026-05-04 07:52 -37.67201 144.84613 386 ft 3 kts 261°
2026-05-04 07:52 -37.67204 144.84593 385 ft 1 kts 261°
2026-05-04 07:57 -37.67206 144.84572 385 ft 5 kts 261°
2026-05-04 07:57 -37.67211 144.84507 384 ft 10 kts 275°
2026-05-04 07:57 -37.67199 144.84411 383 ft 12 kts 267°
2026-05-04 07:58 -37.67223 144.84301 381 ft 14 kts 227°
2026-05-04 07:58 -37.67322 144.84291 378 ft 15 kts 168°
2026-05-04 07:58 -37.67406 144.84307 377 ft 12 kts 172°
2026-05-04 07:58 -37.67441 144.84313 376 ft 1 kts 172°
2026-05-04 07:59 -37.67455 144.84316 375 ft 2 kts 171°
2026-05-04 07:59 -37.67466 144.84318 375 ft 1 kts 171°
2026-05-04 07:59 -37.67472 144.84319 375 ft 0 kts 171°
2026-05-04 07:59 -37.67476 144.84320 375 ft 1 kts 171°
2026-05-04 08:00 -37.67477 144.84320 375 ft 0 kts 171°
2026-05-04 08:00 -37.67479 144.84321 375 ft 1 kts 171°
2026-05-04 08:02 -37.67853 144.84270 360 ft 0 kts 256°
2026-05-04 08:02 -37.67854 144.84265 359 ft 2 kts 256°
2026-05-04 08:02 -37.67859 144.84234 359 ft 6 kts 261°
2026-05-04 08:03 -37.67868 144.84159 358 ft 8 kts 262°
2026-05-04 08:03 -37.67872 144.84122 357 ft 1 kts 262°
2026-05-04 08:03 -37.67872 144.84121 357 ft 0 kts 262°
2026-05-04 08:05 -37.67873 144.84116 357 ft 2 kts 262°
2026-05-04 08:05 -37.67877 144.84077 356 ft 8 kts 262°
2026-05-04 08:05 -37.67877 144.83984 354 ft 11 kts 302°
2026-05-04 08:05 -37.67804 144.83954 356 ft 13 kts 353°
2026-05-04 08:06 -37.67526 144.83902 365 ft 74 kts 352°
2026-05-04 08:06 -37.66798 144.83767 393 ft 134 kts 352°
2026-05-04 08:06 -37.65741 144.83566 627 ft 162 kts 351°
2026-05-04 08:06 -37.64631 144.83344 1347 ft 159 kts 349°
2026-05-04 08:08 -37.54521 144.85042 4039 ft 272 kts 26°
2026-05-04 08:08 -37.52818 144.86096 4785 ft 274 kts 26°
2026-05-04 08:10 -37.40218 144.97657 10388 ft 305 kts 55°
2026-05-04 08:11 -37.38956 144.99927 10572 ft 327 kts 55°
2026-05-04 08:11 -37.36196 145.04856 11125 ft 356 kts 54°
2026-05-04 08:11 -37.34750 145.07420 11698 ft 360 kts 54°
2026-05-04 08:12 -37.33300 145.09986 12284 ft 363 kts 54°
2026-05-04 08:12 -37.31842 145.12560 12840 ft 366 kts 54°
2026-05-04 08:12 -37.30360 145.15171 13384 ft 370 kts 54°
2026-05-04 08:12 -37.28850 145.17831 13951 ft 372 kts 54°
2026-05-04 08:13 -37.27341 145.20485 14496 ft 375 kts 54°
2026-05-04 08:13 -37.25813 145.23170 15009 ft 379 kts 54°
2026-05-04 08:13 -37.24274 145.25873 15506 ft 382 kts 54°
2026-05-04 08:13 -37.22735 145.28575 15901 ft 388 kts 54°
2026-05-04 08:14 -37.21159 145.31339 16394 ft 390 kts 54°
2026-05-04 08:14 -37.19578 145.34110 16896 ft 391 kts 54°
2026-05-04 08:14 -37.18000 145.36872 17591 ft 385 kts 54°
2026-05-04 08:16 -37.06953 145.56133 20768 ft 390 kts 54°
2026-05-04 08:16 -37.05369 145.58886 21175 ft 392 kts 54°
2026-05-04 08:16 -37.03767 145.61669 21535 ft 393 kts 54°
2026-05-04 08:17 -37.02168 145.64445 21909 ft 394 kts 54°
2026-05-04 08:17 -37.00557 145.67238 22125 ft 399 kts 54°
2026-05-04 08:17 -36.98934 145.70052 22176 ft 408 kts 54°
2026-05-04 08:17 -36.97255 145.72958 22231 ft 416 kts 54°
2026-05-04 08:19 -36.84899 145.94275 23252 ft 436 kts 54°
2026-05-04 08:19 -36.83149 145.97284 23652 ft 432 kts 54°
2026-05-04 08:20 -36.81371 146.00337 23992 ft 429 kts 54°
2026-05-04 08:20 -36.79626 146.03332 23991 ft 435 kts 54°
2026-05-04 08:20 -36.77834 146.06404 24007 ft 439 kts 54°
2026-05-04 08:20 -36.76025 146.09503 24013 ft 444 kts 54°
2026-05-04 08:21 -36.74205 146.12617 24010 ft 447 kts 54°
2026-05-04 08:21 -36.72357 146.15777 24011 ft 451 kts 54°
2026-05-04 08:21 -36.70505 146.18940 24008 ft 454 kts 54°
2026-05-04 08:21 -36.68641 146.22121 24006 ft 456 kts 54°
2026-05-04 08:22 -36.66765 146.25320 24005 ft 458 kts 54°
2026-05-04 08:22 -36.64874 146.28541 24004 ft 460 kts 54°
2026-05-04 08:24 -36.51649 146.50982 25168 ft 441 kts 53°
2026-05-04 08:24 -36.49834 146.54050 25349 ft 441 kts 53°
2026-05-04 08:24 -36.48011 146.57129 25398 ft 444 kts 53°
2026-05-04 08:24 -36.46203 146.60180 26056 ft 431 kts 53°
2026-05-04 08:25 -36.44461 146.63116 26745 ft 419 kts 53°
2026-05-04 08:25 -36.42741 146.66015 27122 ft 416 kts 53°
2026-05-04 08:25 -36.41017 146.68916 27248 ft 419 kts 53°
2026-05-04 08:25 -36.39278 146.71840 27335 ft 423 kts 53°
2026-05-04 08:26 -36.37520 146.74795 27386 ft 427 kts 53°
2026-05-04 08:27 -36.25740 146.94525 28480 ft 431 kts 53°
2026-05-04 08:28 -36.23951 146.97512 28607 ft 432 kts 53°
2026-05-04 08:28 -36.22154 147.00510 28726 ft 434 kts 53°
2026-05-04 08:28 -36.20350 147.03517 28835 ft 435 kts 53°
2026-05-04 08:28 -36.18541 147.06529 28954 ft 436 kts 53°
2026-05-04 08:29 -36.16729 147.09544 29075 ft 436 kts 53°
2026-05-04 08:29 -36.14913 147.12559 29183 ft 437 kts 53°
2026-05-04 08:31 -36.00226 147.36885 29974 ft 441 kts 53°
2026-05-04 08:33 -35.85523 147.61074 30002 ft 441 kts 53°
2026-05-04 08:35 -35.70744 147.85198 30000 ft 442 kts 53°
2026-05-04 08:35 -35.67036 147.91226 30002 ft 442 kts 53°
2026-05-04 08:37 -35.54053 148.12252 30001 ft 442 kts 53°
2026-05-04 08:38 -35.50333 148.18254 30000 ft 442 kts 53°
2026-05-04 08:38 -35.46608 148.24257 30002 ft 442 kts 53°
2026-05-04 08:40 -35.31660 148.48186 30001 ft 442 kts 52°
2026-05-04 08:41 -35.27926 148.54137 30000 ft 442 kts 52°
2026-05-04 08:41 -35.24170 148.60114 30002 ft 442 kts 52°
2026-05-04 08:42 -35.20415 148.66080 30001 ft 442 kts 52°
2026-05-04 08:42 -35.16661 148.72034 30002 ft 442 kts 52°
2026-05-04 08:43 -35.12799 148.77806 29983 ft 442 kts 41°
2026-05-04 08:43 -35.10206 148.79881 30006 ft 441 kts 23°
2026-05-04 08:43 -35.07309 148.80897 30003 ft 440 kts
2026-05-04 08:44 -35.01203 148.80612 30006 ft 440 kts 353°
2026-05-04 08:46 -34.76876 148.77234 29978 ft 441 kts
2026-05-04 08:46 -34.73992 148.78413 30006 ft 440 kts 30°
2026-05-04 08:46 -34.71656 148.80782 30003 ft 440 kts 52°
2026-05-04 08:46 -34.70183 148.84021 30017 ft 439 kts 71°
2026-05-04 08:47 -34.69361 148.87593 30008 ft 439 kts 77°
2026-05-04 08:47 -34.67499 148.94651 29989 ft 440 kts 65°
2026-05-04 08:48 -34.64337 149.01002 30006 ft 440 kts 54°
2026-05-04 08:48 -34.60575 149.06869 30021 ft 440 kts 51°
2026-05-04 08:49 -34.56712 149.12669 29759 ft 447 kts 51°
2026-05-04 08:50 -34.45058 149.30474 27444 ft 437 kts 51°
2026-05-04 08:50 -34.43288 149.33443 26948 ft 432 kts 59°
2026-05-04 08:51 -34.41937 149.36678 26425 ft 428 kts 68°
2026-05-04 08:51 -34.40863 149.40015 25945 ft 423 kts 69°
2026-05-04 08:51 -34.39820 149.43334 25456 ft 419 kts 69°
2026-05-04 08:51 -34.38785 149.46627 24974 ft 415 kts 69°
2026-05-04 08:52 -34.37750 149.49888 24497 ft 411 kts 69°
2026-05-04 08:52 -34.36722 149.53095 24030 ft 407 kts 69°
2026-05-04 08:52 -34.35710 149.56230 23573 ft 403 kts 69°
2026-05-04 08:52 -34.34690 149.59373 23113 ft 399 kts 69°
2026-05-04 08:53 -34.33678 149.62483 22658 ft 395 kts 69°
2026-05-04 08:54 -34.26817 149.83465 19568 ft 372 kts 68°
2026-05-04 08:55 -34.25865 149.86368 19137 ft 369 kts 68°
2026-05-04 08:55 -34.24921 149.89242 18711 ft 366 kts 68°
2026-05-04 08:55 -34.23984 149.92092 18288 ft 364 kts 68°
2026-05-04 08:55 -34.23053 149.94921 17851 ft 361 kts 68°
2026-05-04 08:57 -34.16989 150.14283 15015 ft 342 kts 76°
2026-05-04 09:01 -34.09035 150.51253 10175 ft 296 kts 75°
2026-05-04 09:01 -34.08521 150.53626 10044 ft 287 kts 76°
2026-05-04 09:01 -34.08027 150.55931 9846 ft 282 kts 76°
2026-05-04 09:01 -34.07535 150.58223 9558 ft 281 kts 76°
2026-05-04 09:02 -34.07044 150.60504 9273 ft 279 kts 76°
2026-05-04 09:02 -34.06559 150.62757 8986 ft 278 kts 76°
2026-05-04 09:02 -34.06079 150.64985 8700 ft 276 kts 76°
2026-05-04 09:02 -34.05597 150.67222 8410 ft 275 kts 76°
2026-05-04 09:03 -34.05124 150.69414 8125 ft 274 kts 76°
2026-05-04 09:03 -34.04644 150.71637 7836 ft 273 kts 76°
2026-05-04 09:03 -34.04167 150.73843 7549 ft 272 kts 76°
2026-05-04 09:03 -34.03700 150.76001 7267 ft 271 kts 76°
2026-05-04 09:04 -34.03214 150.78245 6979 ft 269 kts 75°
2026-05-04 09:04 -34.02718 150.80420 6737 ft 270 kts 75°
2026-05-04 09:04 -34.02204 150.82604 6497 ft 272 kts 74°
2026-05-04 09:04 -34.01691 150.84777 6255 ft 273 kts 74°
2026-05-04 09:05 -34.01179 150.86950 6046 ft 270 kts 74°
2026-05-04 09:05 -34.00668 150.89124 5996 ft 270 kts 74°
2026-05-04 09:05 -34.00161 150.91281 5971 ft 261 kts 74°
2026-05-04 09:05 -33.99677 150.93341 5961 ft 249 kts 74°
2026-05-04 09:06 -33.99219 150.95283 5982 ft 231 kts 74°
2026-05-04 09:07 -33.99362 151.05805 6003 ft 202 kts 162°
2026-05-04 09:08 -34.00645 151.06523 5976 ft 206 kts 143°
2026-05-04 09:08 -34.01461 151.07915 5980 ft 207 kts 105°
2026-05-04 09:08 -34.01514 151.09639 5997 ft 208 kts 84°
2026-05-04 09:08 -34.01341 151.11380 5986 ft 210 kts 83°
2026-05-04 09:09 -34.01154 151.13114 5984 ft 211 kts 83°
2026-05-04 09:09 -34.00961 151.14874 5978 ft 212 kts 83°
2026-05-04 09:09 -34.00766 151.16640 5975 ft 212 kts 83°
2026-05-04 09:09 -34.00570 151.18402 5973 ft 212 kts 83°
2026-05-04 09:10 -34.00375 151.20157 5972 ft 211 kts 83°
2026-05-04 09:10 -34.00180 151.21903 5971 ft 210 kts 83°
2026-05-04 09:10 -33.99986 151.23648 5970 ft 209 kts 83°
2026-05-04 09:10 -33.99859 151.24798 5971 ft 209 kts 83°
2026-05-04 09:11 -33.99652 151.26659 5970 ft 208 kts 83°
2026-05-04 09:11 -33.99732 151.28365 5817 ft 204 kts 112°
2026-05-04 09:11 -34.00587 151.29682 5478 ft 202 kts 149°
2026-05-04 09:11 -34.01896 151.30263 5158 ft 201 kts 166°
2026-05-04 09:12 -34.03240 151.30651 4857 ft 201 kts 167°
2026-05-04 09:12 -34.04600 151.31030 4571 ft 200 kts 168°
2026-05-04 09:14 -34.13933 151.33584 2904 ft 187 kts 168°
2026-05-04 09:14 -34.14782 151.33816 2906 ft 189 kts 168°
2026-05-04 09:14 -34.16001 151.34149 2921 ft 194 kts 168°
2026-05-04 09:14 -34.17333 151.34512 2931 ft 197 kts 168°
2026-05-04 09:15 -34.18698 151.34884 2635 ft 204 kts 168°
2026-05-04 09:15 -34.20091 151.35262 2280 ft 206 kts 168°
2026-05-04 09:15 -34.21494 151.35643 2013 ft 203 kts 168°
2026-05-04 09:15 -34.22838 151.35668 1967 ft 191 kts 200°
2026-05-04 09:17 -34.21105 151.25281 1968 ft 193 kts 315°
2026-05-04 09:18 -34.19924 151.24552 1991 ft 195 kts 348°
2026-05-04 09:18 -34.18645 151.24258 1988 ft 196 kts 348°
2026-05-04 09:18 -34.17242 151.24009 1979 ft 197 kts 355°
2026-05-04 09:18 -34.15872 151.23880 1977 ft 197 kts 355°
2026-05-04 09:19 -34.14517 151.23747 1977 ft 197 kts 354°
2026-05-04 09:19 -34.13156 151.23533 1977 ft 197 kts 349°
2026-05-04 09:19 -34.11824 151.23223 1988 ft 192 kts 347°
2026-05-04 09:19 -34.10526 151.22888 1999 ft 192 kts 347°
2026-05-04 09:20 -34.09209 151.22544 1991 ft 194 kts 347°
2026-05-04 09:20 -34.07889 151.22199 1994 ft 193 kts 347°
2026-05-04 09:20 -34.06570 151.21855 1911 ft 194 kts 347°
2026-05-04 09:20 -34.05266 151.21515 1657 ft 186 kts 347°
2026-05-04 09:21 -34.04062 151.21201 1418 ft 169 kts 347°
2026-05-04 09:21 -34.02956 151.20913 1206 ft 157 kts 347°
2026-05-04 09:21 -34.01882 151.20632 1014 ft 159 kts 347°
2026-05-04 09:21 -34.00805 151.20351 799 ft 156 kts 347°
2026-05-04 09:22 -33.99749 151.20076 593 ft 155 kts 347°
2026-05-04 09:22 -33.98694 151.19800 381 ft 154 kts 347°
2026-05-04 09:22 -33.97656 151.19527 185 ft 154 kts 347°
2026-05-04 09:22 -33.96615 151.19255 32 ft 149 kts 347°
2026-05-04 09:23 -33.95814 151.19048 26 ft 56 kts 348°
2026-05-04 09:23 -33.95493 151.18961 24 ft 37 kts 344°
2026-05-04 09:23 -33.95362 151.18895 23 ft 18 kts 335°
2026-05-04 09:23 -33.95265 151.18821 26 ft 12 kts 321°
2026-05-04 09:25 -33.95128 151.18360 29 ft 17 kts 258°
2026-05-04 09:25 -33.95152 151.18225 29 ft 15 kts 258°
2026-05-04 09:26 -33.95165 151.18154 29 ft 5 kts 258°
2026-05-04 09:26 -33.95165 151.18151 29 ft 0 kts 258°
2026-05-04 09:27 -33.95165 151.18150 29 ft 0 kts 258°
2026-05-04 09:28 -33.95169 151.18128 29 ft 6 kts 258°
2026-05-04 09:28 -33.95183 151.18052 29 ft 14 kts 258°
2026-05-04 09:28 -33.95124 151.17948 29 ft 21 kts 345°
2026-05-04 09:28 -33.94991 151.17915 29 ft 19 kts 347°
2026-05-04 09:29 -33.94867 151.17883 29 ft 18 kts 348°
2026-05-04 09:29 -33.94753 151.17853 29 ft 16 kts 348°
2026-05-04 09:29 -33.94678 151.17834 29 ft 0 kts 348°
2026-05-04 09:29 -33.94672 151.17832 29 ft 3 kts 348°
2026-05-04 09:30 -33.94634 151.17822 29 ft 9 kts 347°
2026-05-04 09:30 -33.94535 151.17796 29 ft 20 kts 347°
2026-05-04 09:30 -33.94385 151.17752 29 ft 23 kts 346°
2026-05-04 09:30 -33.94238 151.17706 28 ft 21 kts 345°
2026-05-04 09:31 -33.94108 151.17666 28 ft 19 kts 346°
2026-05-04 09:31 -33.93986 151.17633 27 ft 17 kts 348°
2026-05-04 09:31 -33.93888 151.17625 28 ft 13 kts 26°
2026-05-04 09:31 -33.93851 151.17723 29 ft 13 kts 72°
2026-05-04 09:32 -33.93827 151.17825 29 ft 13 kts 73°
2026-05-04 09:32 -33.93804 151.17926 29 ft 12 kts 75°
2026-05-04 09:34 -33.93636 151.17988 29 ft 0 kts 279°